Wind_Speed
50 49 48 47 46 46 45 43 43 43 42 42 41 40 39 38 37 37 36 36 35 35 35 36 36 36 36 37 38 38 39 39 41 41 41 41 42 42 43 43 44 44 44
50 49 49 49 48 48 47 46 45 44 44 44 43 43 42 41 40 40 39 39 39 38 38 38 39 39 39 39 40 41 41 42 42 43 44 42 42 42 43 44 44 44 44
51 50 49 49 49 49 49 48 47 47 46 46 46 45 45 44 43 43 42 41 41 41 41 41 41 41 41 41 42 43 43 43 44 44 45 45 44 43 42 42 43 43 43
51 51 50 50 50 50 50 50 50 49 49 48 47 47 46 46 45 44 44 44 44 44 44 44 43 43 43 43 44 44 45 45 44 44 45 46 46 46 45 43 42 42 42
52 52 51 51 50 50 50 50 51 50 50 50 49 48 47 47 47 47 47 47 46 45 45 45 45 45 45 45 45 45 45 45 45 46 46 46 46 46 46 44 42 41 41
52 51 50 51 51 51 51 51 51 51 51 51 50 50 49 49 49 49 49 48 48 47 47 47 47 47 47 47 47 47 47 47 47 47 47 46 46 46 45 44 43 42 41
50 50 50 50 50 51 51 51 51 51 51 51 51 51 51 51 50 50 50 49 49 49 49 49 49 49 48 48 48 48 48 47 47 47 46 46 46 45 44 43 42 41 41
46 47 48 49 49 49 49 50 50 50 50 50 50 50 51 50 50 50 50 50 51 50 50 50 50 49 49 48 48 47 47 46 46 46 46 45 45 44 43 42 41 41 40
42 44 46 47 48 49 49 48 49 49 49 49 49 49 49 49 50 50 50 50 51 51 51 50 49 48 48 47 47 46 46 46 45 45 44 44 44 42 42 41 40 39 39
39 41 44 45 47 48 49 49 48 49 48 48 48 48 49 49 50 50 50 50 50 49 48 47 47 46 46 45 45 45 45 44 44 44 43 43 42 41 40 39 39 38 38
37 39 42 44 46 47 48 49 48 49 49 49 49 49 49 50 50 50 50 49 49 48 47 46 46 45 44 44 44 44 44 44 43 43 42 41 40 39 39 38 37 37 37
35 37 39 41 43 45 47 48 49 49 49 49 50 50 50 50 50 50 50 49 48 48 47 46 45 44 44 44 44 44 43 43 42 41 40 39 38 37 37 36 36 36 36
32 34 36 38 40 41 43 44 45 46 47 48 49 50 50 49 50 50 49 49 48 47 46 45 44 44 43 43 43 42 42 41 40 39 38 37 36 36 35 35 35 35 35
32 33 34 36 37 39 41 42 43 44 45 46 47 48 49 49 49 48 47 47 47 46 45 44 44 43 43 42 41 41 40 39 38 37 36 35 35 35 34 34 34 34 34
31 32 33 35 36 37 38 40 41 42 43 44 44 45 46 46 46 47 46 46 45 45 44 43 43 42 42 40 40 39 38 37 37 35 34 34 34 33 33 33 33 33 33
31 32 33 34 35 36 37 38 39 39 40 41 42 42 42 43 43 43 43 42 42 42 42 41 41 40 39 39 39 37 36 35 34 33 33 33 32 32 32 32 32 32 33
31 32 33 34 34 35 35 35 36 37 38 39 39 40 41 41 42 42 41 41 40 40 40 39 38 38 37 37 36 35 34 33 32 32 32 31 31 31 31 31 32 32 33
31 31 32 32 33 34 34 34 35 35 37 38 38 38 39 39 39 39 39 39 38 37 37 36 36 36 35 34 34 33 32 32 31 31 30 30 30 30 31 31 32 33 33
30 30 31 31 32 32 33 34 34 35 36 36 37 37 37 37 37 36 36 36 36 35 35 35 34 33 33 32 32 32 31 31 30 30 29 30 30 31 32 32 32 33 34
29 29 29 30 31 32 33 33 33 34 34 34 34 34 34 34 34 34 33 33 33 33 33 32 32 32 32 32 31 31 30 30 30 29 29 30 31 32 32 33 33 34 35
27 28 28 28 29 31 31 32 33 32 32 31 31 31 31 32 32 32 31 31 31 31 31 31 31 31 31 30 30 29 30 30 29 30 30 31 32 33 33 34 35 35 36
27 26 27 27 27 28 29 29 30 30 30 30 30 30 30 30 29 29 30 30 29 29 30 30 30 30 30 29 29 29 29 30 30 31 32 33 33 34 34 35 36 37 37
26 26 26 26 26 27 27 28 27 27 27 27 28 28 28 28 28 28 28 29 29 28 28 28 29 29 29 29 30 30 30 31 32 32 33 34 34 35 36 36 37 38 38
24 25 25 25 25 25 26 26 26 26 25 26 26 26 27 27 27 27 28 28 28 28 28 28 29 29 29 30 30 31 31 32 33 33 34 35 35 36 37 37 38 38 38
23 23 24 24 24 24 25 25 25 25 25 26 26 26 27 27 26 27 27 27 28 28 28 28 29 30 30 31 31 32 32 33 33 34 34 35 36 37 37 38 38 39 39
23 23 24 24 24 24 24 25 25 25 26 26 27 27 27 27 27 27 27 28 28 28 29 29 30 30 31 31 32 32 33 34 34 35 36 36 37 38 38 39 39 40 40
Wind_Direction
229 230 230 232 233 235 237 239 240 241 242 244 247 249 253 256 260 263 266 269 272 275 277 279 281 283 285 286 288 289 291 293 295 296 297 299 300 302 302 303 303 302 301
231 231 232 233 234 235 237 239 241 243 245 246 248 251 254 257 260 263 266 269 272 274 276 278 280 282 283 285 286 288 290 292 294 295 296 297 298 300 301 302 301 300 299
232 232 232 233 235 236 237 239 242 244 247 250 251 252 254 257 260 263 266 268 271 273 275 277 279 280 281 283 285 287 289 291 292 294 296 297 298 298 299 298 298 297 297
233 235 235 235 237 238 240 241 243 246 248 250 251 252 254 257 260 263 265 267 269 272 274 276 277 278 280 282 284 286 288 289 291 293 295 296 297 298 298 297 296 295 295
234 235 237 238 239 240 241 243 244 246 248 250 251 252 254 257 259 262 264 266 268 270 272 274 276 277 279 281 283 285 287 288 290 292 294 295 296 297 298 298 296 295 294
234 235 237 239 241 242 243 244 245 246 247 249 251 252 254 257 259 261 263 265 267 269 271 273 275 277 278 280 282 284 285 287 290 292 293 294 295 296 296 296 296 295 294
235 236 238 239 240 242 243 244 246 248 249 251 252 253 255 257 259 261 263 265 267 269 270 272 274 276 278 280 281 283 285 287 289 291 292 293 294 295 295 294 294 294 293
236 237 237 237 238 241 243 244 246 249 251 252 253 255 257 258 260 262 263 265 267 269 270 273 274 276 278 279 281 283 284 286 288 290 291 292 293 293 293 293 293 293 293
239 239 238 238 239 241 243 245 247 249 251 252 254 255 257 258 260 262 264 266 268 270 271 273 275 276 277 279 280 282 284 286 288 289 290 290 291 291 291 292 292 292 293
241 241 241 240 241 242 244 246 248 250 252 253 255 256 258 260 261 263 265 267 268 270 271 273 274 276 278 279 280 282 284 285 286 287 288 289 289 289 290 291 292 292 293
242 243 243 243 243 244 246 247 249 251 252 254 256 257 259 261 262 264 265 267 268 270 271 273 274 276 277 278 280 282 283 285 286 286 287 287 288 288 289 290 291 293 294
244 245 246 247 247 248 248 249 251 252 253 255 257 258 259 261 263 264 265 267 268 269 271 272 274 275 277 278 280 282 283 284 284 285 285 286 287 288 289 290 292 293 295
248 249 249 250 250 251 251 251 252 253 254 255 257 258 260 262 263 264 266 267 268 269 271 272 273 275 277 279 280 281 282 282 283 283 284 285 286 287 289 290 292 294 295
252 252 253 253 253 254 254 254 255 256 257 258 259 260 261 262 264 265 266 267 268 269 270 272 274 275 277 278 279 280 280 281 281 282 282 283 285 287 289 291 293 294 296
255 255 256 256 255 256 256 256 256 257 258 259 261 262 262 263 265 265 266 267 268 268 270 272 273 274 275 276 277 278 278 279 279 279 280 282 285 287 289 291 293 295 297
257 257 258 258 257 257 257 257 258 259 259 260 261 262 263 263 264 265 265 266 267 268 269 270 271 272 273 274 275 276 276 276 277 278 280 282 284 287 290 291 293 296 297
257 258 259 258 257 257 258 258 259 259 259 260 261 261 262 262 263 263 263 264 265 267 268 269 270 271 271 272 273 273 273 275 277 278 280 282 284 287 290 292 294 296 298
258 258 258 257 256 257 258 259 259 259 260 261 262 263 263 263 263 263 263 263 265 266 267 268 268 269 270 270 270 271 272 275 277 279 280 282 285 288 290 292 295 296 298
259 258 258 257 257 257 258 259 260 260 261 262 263 264 263 263 263 263 263 263 264 265 265 266 267 268 268 269 269 270 272 274 276 278 280 282 286 288 291 293 295 297 298
258 258 257 258 258 258 258 259 260 261 262 263 263 263 263 262 262 262 262 263 264 264 265 265 266 266 267 269 269 270 272 273 275 277 280 284 287 289 291 293 295 297 298
257 258 257 257 258 258 259 260 260 260 260 261 262 262 262 261 261 262 262 263 263 264 264 265 265 266 267 267 268 270 271 273 275 278 282 285 288 290 292 294 295 297 297
257 257 257 257 258 258 259 259 259 260 260 260 261 261 262 262 263 263 263 262 263 263 264 264 265 265 266 266 268 270 271 274 277 281 284 287 289 291 292 294 296 297 298
256 256 256 257 258 259 259 257 258 259 260 260 261 262 262 262 262 263 263 263 262 264 264 264 265 265 266 267 269 271 273 276 279 282 285 288 290 292 294 295 297 297 298
256 256 256 256 258 258 258 257 257 259 260 260 260 261 261 262 263 264 264 264 265 265 264 265 266 266 267 268 270 272 275 278 281 283 286 288 290 293 294 296 297 298 298
255 255 256 257 258 258 257 257 257 258 259 259 260 262 262 261 262 264 265 265 265 266 267 267 268 268 268 270 272 274 277 279 282 284 286 289 291 293 295 296 297 298 299
256 256 257 257 257 257 258 257 257 258 260 261 261 262 262 262 262 264 266 267 267 268 269 268 269 270 270 272 274 276 278 280 282 285 287 290 292 293 295 296 297 298 299
Height
5794 5799 5804 5808 5812 5816 5820 5823 5826 5828 5831 5834 5836 5838 5840 5841 5842 5843 5844 5844 5845 5844 5844 5844 5842 5841 5840 5839 5837 5835 5833 5830 5827 5825 5822 5820 5816 5812 5807 5804 5800 5796 5792
5786 5792 5797 5801 5805 5809 5812 5815 5818 5821 5824 5826 5828 5830 5832 5834 5835 5836 5837 5837 5837 5837 5837 5836 5835 5834 5833 5831 5829 5827 5825 5823 5820 5817 5814 5812 5810 5805 5800 5795 5791 5787 5783
5779 5784 5788 5793 5796 5800 5804 5808 5810 5813 5816 5818 5820 5822 5824 5825 5827 5828 5829 5829 5829 5829 5829 5828 5827 5826 5825 5823 5821 5819 5817 5815 5812 5808 5805 5802 5800 5797 5794 5789 5783 5778 5774
5771 5775 5780 5784 5788 5792 5795 5799 5802 5805 5808 5810 5812 5814 5815 5817 5818 5819 5820 5820 5821 5821 5820 5819 5819 5818 5816 5815 5813 5811 5808 5806 5803 5800 5797 5793 5790 5787 5785 5781 5776 5771 5766
5762 5766 5770 5775 5779 5783 5787 5790 5793 5796 5799 5801 5803 5805 5806 5808 5809 5810 5811 5811 5812 5811 5811 5810 5810 5809 5807 5806 5804 5802 5799 5797 5794 5791 5788 5785 5781 5777 5774 5771 5767 5763 5758
5752 5757 5761 5765 5770 5774 5777 5780 5783 5786 5789 5791 5793 5795 5797 5798 5799 5800 5801 5802 5802 5802 5801 5801 5800 5799 5797 5796 5794 5792 5790 5787 5785 5781 5778 5775 5772 5768 5764 5761 5757 5753 5749
5743 5748 5752 5757 5761 5764 5767 5771 5773 5776 5779 5781 5783 5785 5787 5788 5789 5790 5791 5791 5792 5792 5791 5790 5790 5789 5787 5786 5784 5782 5780 5777 5775 5772 5769 5765 5762 5758 5754 5751 5747 5744 5740
5735 5739 5744 5748 5751 5754 5758 5761 5764 5766 5769 5771 5773 5775 5776 5778 5779 5780 5780 5781 5781 5781 5780 5780 5779 5778 5777 5775 5773 5772 5769 5767 5764 5762 5758 5755 5752 5748 5745 5741 5738 5734 5731
5727 5731 5735 5738 5742 5745 5748 5751 5754 5757 5759 5761 5763 5764 5766 5767 5768 5769 5770 5770 5770 5770 5769 5769 5768 5767 5766 5765 5763 5761 5759 5757 5754 5751 5748 5745 5742 5738 5735 5732 5728 5725 5722
5719 5723 5726 5730 5733 5736 5739 5742 5744 5747 5749 5751 5753 5754 5755 5756 5757 5758 5759 5759 5759 5759 5758 5758 5757 5756 5755 5754 5752 5750 5748 5746 5743 5741 5738 5735 5732 5729 5725 5722 5719 5715 5712
5711 5714 5717 5720 5723 5726 5729 5732 5734 5737 5739 5740 5742 5743 5745 5746 5746 5747 5747 5747 5748 5748 5747 5747 5746 5745 5744 5743 5741 5740 5737 5735 5733 5730 5728 5725 5722 5719 5716 5713 5709 5706 5703
5703 5706 5709 5711 5714 5717 5719 5721 5724 5726 5728 5729 5731 5732 5733 5734 5735 5736 5736 5736 5736 5736 5736 5736 5735 5734 5733 5732 5730 5729 5727 5724 5722 5720 5717 5715 5712 5710 5707 5704 5700 5697 5694
5696 5698 5700 5702 5705 5707 5709 5711 5713 5715 5717 5718 5719 5721 5722 5723 5723 5724 5724 5725 5725 5725 5725 5725 5724 5723 5722 5721 5719 5718 5716 5714 5712 5710 5707 5705 5703 5700 5697 5694 5691 5688 5685
5688 5690 5692 5694 5695 5697 5699 5700 5702 5704 5705 5707 5708 5709 5710 5711 5712 5712 5713 5713 5714 5714 5713 5713 5713 5712 5711 5710 5708 5707 5705 5704 5702 5700 5698 5696 5694 5691 5689 5686 5683 5680 5676
5681 5682 5683 5685 5686 5688 5689 5691 5692 5693 5695 5696 5697 5698 5699 5700 5700 5701 5701 5702 5702 5702 5702 5702 5702 5701 5700 5699 5698 5697 5695 5694 5692 5690 5689 5687 5685 5682 5680 5677 5674 5671 5668
5673 5674 5675 5676 5678 5679 5680 5681 5682 5684 5684 5685 5686 5687 5688 5688 5689 5690 5690 5690 5691 5691 5691 5691 5690 5690 5689 5688 5687 5686 5685 5684 5683 5681 5680 5678 5676 5674 5671 5668 5665 5662 5659
5665 5666 5666 5667 5669 5670 5671 5672 5673 5674 5675 5675 5676 5676 5677 5678 5678 5679 5679 5680 5680 5680 5680 5680 5680 5679 5679 5678 5677 5677 5676 5675 5674 5672 5671 5669 5667 5665 5662 5660 5657 5654 5650
5656 5657 5658 5659 5660 5661 5662 5663 5664 5664 5665 5665 5666 5666 5667 5667 5668 5668 5669 5669 5669 5670 5670 5670 5670 5669 5669 5669 5668 5668 5667 5666 5665 5664 5662 5660 5658 5656 5654 5651 5648 5645 5642
5648 5649 5649 5650 5651 5652 5653 5654 5655 5655 5656 5656 5656 5657 5657 5657 5658 5658 5659 5659 5660 5660 5660 5660 5660 5660 5660 5660 5659 5659 5658 5657 5656 5655 5654 5652 5650 5648 5645 5643 5640 5636 5633
5640 5640 5641 5642 5643 5644 5644 5645 5646 5646 5646 5647 5647 5647 5648 5648 5648 5649 5649 5650 5650 5651 5651 5651 5651 5651 5651 5651 5650 5650 5649 5649 5648 5646 5645 5643 5641 5639 5636 5633 5630 5627 5623
5632 5632 5633 5634 5634 5635 5636 5636 5637 5637 5638 5638 5638 5638 5639 5639 5640 5640 5641 5641 5642 5642 5642 5642 5643 5643 5642 5642 5642 5641 5641 5640 5639 5638 5636 5634 5632 5629 5627 5624 5621 5617 5613
5624 5624 5625 5625 5626 5627 5627 5628 5628 5629 5629 5630 5630 5630 5631 5631 5632 5632 5632 5633 5633 5634 5634 5634 5634 5634 5634 5634 5633 5633 5632 5631 5630 5629 5627 5625 5623 5620 5617 5614 5610 5607 5603
5616 5617 5617 5618 5618 5619 5619 5620 5620 5621 5621 5622 5622 5622 5623 5623 5624 5624 5625 5625 5625 5625 5625 5626 5626 5626 5625 5625 5625 5624 5624 5622 5621 5620 5618 5615 5613 5610 5607 5604 5600 5596 5592
5608 5609 5610 5610 5611 5611 5612 5612 5613 5613 5614 5614 5615 5615 5615 5616 5616 5616 5617 5617 5617 5617 5617 5617 5617 5617 5617 5617 5616 5615 5614 5613 5612 5610 5608 5605 5603 5600 5597 5593 5590 5586 5582
5601 5602 5602 5603 5603 5604 5604 5605 5605 5606 5606 5607 5607 5608 5608 5608 5608 5609 5609 5609 5609 5609 5609 5609 5609 5609 5608 5608 5607 5606 5605 5604 5602 5600 5598 5595 5593 5590 5586 5583 5579 5575 5571
5594 5595 5595 5596 5596 5596 5597 5597 5598 5598 5599 5599 5600 5600 5600 5600 5601 5601 5601 5601 5601 5601 5601 5601 5600 5600 5599 5599 5598 5597 5595 5594 5592 5590 5588 5585 5582 5579 5576 5572 5568 5564 5560